アトラス彗星

C/2021 G2 ( ATLAS )

English version
Home page
Updated on October 1, 2025

---------------------------------------------------------------------

・ プロフィール

発見日 2021年4月11日
発見光度 19.3等
発見者 Asteroid Terrestrial-Impact Last Alert System (ATLAS) search program

・ 写真集

・ 軌道要素

Epoch 2025 May 5.0 TT = JDT 2460800.5
T 2024 Sept.  9.14035 TT                                Pike
q   4.9823186            (2000.0)            P               Q
z  -0.0001352      Peri.  343.26753     -0.84718640     +0.20039910
 +/-0.0000006      Node   221.09502     -0.35981819     -0.89782434
e   1.0006736      Incl.   48.46796     -0.39090417     +0.39211180
From 1674 observations 2021 Sept. 29-2025 Feb. 27, mean residual 0".3.

・ 星図

・ 光度変化

        m1 = 3.0 + 5 logΔ + 10.0 log r(t - 100)

---------------------------------------------------------------------

軌道要素はM.P.E.C. 2025-D254に掲載されたものです。
星図はステラナビゲータ Ver.10 (アストロアーツ) で作成したものです。
光度グラフはComet for Windowsで作成したものです。

---------------------------------------------------------------------

Copyright(C) Seiichi Yoshida (comet@aerith.net). All rights reserved.